Location: Gorze? G�rny
(49.8500°N, 19.5000°E)
Time: 05:29:05
(UTC+00:00)

Resurs 01 Rocket - Pass Details

Date: 13 May 2021
Orbit: 633 x 645 km, 97.9° (Epoch: 20 June)

Event Time Altitude Azimuth Distance (km) Brightness Sun altitude
Rises 20:49:09 0° 223° (SW) 2,945 4.8 -17.4°
Reaches altitude 10° 20:53:23 10° 262° (W) 2,042 4.4 -17.7°
Maximum altitude 20:54:18 11° 275° (W) 2,005 4.6 -17.8°
Drops below altitude 10° 20:55:14 10° 287° (WNW) 2,044 4.8 -17.8°
Sets 20:59:30 0° 327° (NNW) 2,959 6.7 -18.1°
